KC5L-11 Weather Reports


time (UTC)temp
C
wind
direction
speed
KPH
gust
KPH
rain 1hr
cm
rain 24hr
cm
rain mn
cm
humidity
%
barometer
mb
20260504090137 16 46 6.4 0.0 0.00 0.00 0.00 1007.5
20260504081510 17 39 8.0 0.0 0.00 0.00 0.00 1007.9
20260504080333 17 49 6.4 0.0 0.00 0.00 0.00 1008.0
20260504045740 19 49 8.0 0.0 0.00 0.00 0.00 1009.8
20260504044604 19 38 12.9 0.0 0.00 0.00 0.00 1009.9
20260504043426 20 35 9.7 0.0 0.00 0.00 0.00 1009.9
20260504042249 20 65 8.0 0.0 0.00 0.00 0.00 1010.0
20260504041112 20 46 11.3 0.0 0.00 0.00 0.00 1010.1
20260504035936 20 25 11.3 0.0 0.00 0.00 0.00 1010.1
20260504034759 20 18 17.7 0.0 0.00 0.00 0.00 1010.4
20260504033622 20 41 11.3 0.0 0.00 0.00 0.00 1010.2
20260504032445 20 82 11.3 0.0 0.00 0.00 0.00 1010.0
20260504031311 20 13 12.9 0.0 0.00 0.00 0.00 1010.1
20260504030130 21 38 19.3 0.0 0.00 0.00 0.00 1009.9
20260504024954 21 44 12.9 0.0 0.00 0.00 0.00 1009.9
20260504023816 21 52 9.7 0.0 0.00 0.00 0.00 1009.9
20260504022639 21 63 11.3 0.0 0.00 0.00 0.00 1009.8
20260504021502 21 49 14.5 0.0 0.00 0.00 0.00 1009.6
20260504020325 22 28 19.3 0.0 0.00 0.00 0.00 1009.5
20260504015148 22 32 11.3 0.0 0.00 0.00 0.00 1009.3
20260504014011 22 34 8.0 0.0 0.00 0.00 0.00 1009.1
20260504012834 23 20 8.0 0.0 0.00 0.00 0.00 1009.2
20260504011657 23 18 6.4 0.0 0.00 0.00 0.00 1009.3
20260504010520 23 21 11.3 0.0 0.00 0.00 0.00 1009.1
20260504005343 24 18 4.8 0.0 0.00 0.00 0.00 1009.0
20260504004206 25 34 14.5 0.0 0.00 0.00 0.00 1008.9
20260504003030 25 32 8.0 0.0 0.00 0.00 0.00 1008.8
20260504001852 25 48 4.8 0.0 0.00 0.00 0.00 1008.9
20260504000718 26 37 16.1 0.0 0.00 0.00 0.00 1009.0
20260503235538 26 15 8.0 0.0 0.00 0.00 0.00 1009.1
20260503234401 26 28 0.0 0.0 0.00 0.00 0.00 1009.3
20260503233224 26 13 8.0 0.0 0.00 0.00 0.00 1009.4
20260503232048 26 72 1.6 0.0 0.00 0.00 0.00 1009.4
20260503230910 27 42 6.4 0.0 0.00 0.00 0.00 1009.4
20260503225735 27 11 11.3 0.0 0.00 0.00 0.00 1009.2
20260503224557 27 48 6.4 0.0 0.00 0.00 0.00 1009.4
20260503223421 27 46 8.0 0.0 0.00 0.00 0.00 1009.8
20260503222243 27 14 8.0 0.0 0.00 0.00 0.00 1009.9
20260503221106 27 7 24.1 0.0 0.00 0.00 0.00 1010.2
20260503215929 27 32 11.3 0.0 0.00 0.00 0.00 1010.2
20260503214753 28 356 9.7 0.0 0.00 0.00 0.00 1010.5
20260503213616 28 45 9.7 0.0 0.00 0.00 0.00 1010.6
20260503212439 28 42 12.9 0.0 0.00 0.00 0.00 1010.9
20260503211302 27 25 9.7 0.0 0.00 0.00 0.00 1011.3
20260503210124 27 25 0.0 0.0 0.00 0.00 0.00 1011.5
20260503204948 27 84 0.0 0.0 0.00 0.00 0.00 1011.8
20260503203810 27 58 12.9 0.0 0.00 0.00 0.00 1011.8
20260503202634 26 350 4.8 0.0 0.00 0.00 0.00 1012.1
20260503201456 27 20 0.0 0.0 0.00 0.00 0.00 1012.3
20260503200320 26 27 6.4 0.0 0.00 0.00 0.00 1012.7
20260503195142 26 68 11.3 0.0 0.00 0.00 0.00 1012.8
20260503194005 26 25 4.8 0.0 0.00 0.00 0.00 1013.0
20260503192829 26 21 0.0 0.0 0.00 0.00 0.00 1013.1
20260503191652 26 38 12.9 0.0 0.00 0.00 0.00 1013.3
20260503190515 26 7 9.7 0.0 0.00 0.00 0.00 1013.6
20260503185338 26 342 8.0 0.0 0.00 0.00 0.00 1013.8
20260503184204 26 8 14.5 0.0 0.00 0.00 0.00 1013.9
20260503183024 26 8 11.3 0.0 0.00 0.00 0.00 1014.2
20260503181847 26 60 8.0 0.0 0.00 0.00 0.00 1014.4
20260503180710 26 349 6.4 0.0 0.00 0.00 0.00 1014.6
20260503175533 26 66 4.8 0.0 0.00 0.00 0.00 1014.8
20260503174355 26 304 0.0 0.0 0.00 0.00 0.00 1014.9
20260503173218 25 10 11.3 0.0 0.00 0.00 0.00 1015.3
20260503172043 25 44 11.3 0.0 0.00 0.00 0.00 1015.5
20260503172041 25 44 11.3 0.0 0.00 0.00 0.00 1015.5
20260503170904 25 353 8.0 0.0 0.00 0.00 0.00 1015.6
20260503150121 26 117 0.0 0.0 0.00 0.00 0.00 1016.2
20260503140312 23 256 0.0 0.0 0.00 0.00 0.00 1015.9
20260503130508 18 255 0.0 0.0 0.00 0.00 0.00 1015.4